| time (UTC) | temp F | wind direction | speed knots | gust knots | rain 1hr in | rain 24hr in | rain mn in | humidity % | barometer mb |
| 20260507084215 | 48 | 128 | 0.0 | 0.0 | 0.00 | 0.00 | 0.00 | 67 | 1020.3 |
| 20260507083713 | 49 | 134 | 0.0 | 0.0 | 0.00 | 0.00 | 0.00 | 67 | 1020.3 |
| 20260507083209 | 49 | 137 | 0.0 | 0.0 | 0.00 | 0.00 | 0.00 | 66 | 1020.2 |
| 20260507082705 | 49 | 120 | 0.0 | 0.0 | 0.00 | 0.00 | 0.00 | 66 | 1020.3 |
| 20260507082201 | 50 | 122 | 0.0 | 0.0 | 0.00 | 0.00 | 0.00 | 66 | 1020.3 |
| 20260507081658 | 50 | 117 | 0.0 | 0.0 | 0.00 | 0.00 | 0.00 | 66 | 1020.3 |
| 20260507081154 | 50 | 110 | 0.9 | 0.9 | 0.00 | 0.00 | 0.00 | 66 | 1020.2 |
| 20260507080651 | 50 | 121 | 0.0 | 0.0 | 0.00 | 0.00 | 0.00 | 66 | 1020.1 |
| 20260507080148 | 50 | 114 | 0.0 | 0.0 | 0.00 | 0.00 | 0.00 | 66 | 1020.0 |
| 20260507075648 | 50 | 104 | 0.9 | 0.9 | 0.00 | 0.00 | 0.00 | 66 | 1020.1 |
| 20260507075144 | 50 | 117 | 0.0 | 0.0 | 0.00 | 0.00 | 0.00 | 66 | 1019.9 |
| 20260507074641 | 50 | 114 | 0.0 | 0.0 | 0.00 | 0.00 | 0.00 | 66 | 1019.9 |
| 20260507074139 | 50 | 113 | 0.0 | 0.0 | 0.00 | 0.00 | 0.00 | 66 | 1019.9 |
| 20260507073635 | 50 | 113 | 0.0 | 0.0 | 0.00 | 0.00 | 0.00 | 66 | 1019.9 |
| 20260507073132 | 50 | 116 | 0.0 | 0.0 | 0.00 | 0.00 | 0.00 | 66 | 1020.0 |
| 20260507072630 | 51 | 110 | 0.0 | 0.0 | 0.00 | 0.00 | 0.00 | 66 | 1019.8 |
| 20260507072127 | 51 | 112 | 0.0 | 0.0 | 0.00 | 0.00 | 0.00 | 67 | 1019.9 |
| 20260507071624 | 51 | 114 | 0.0 | 0.0 | 0.00 | 0.00 | 0.00 | 67 | 1020.0 |
| 20260507071120 | 51 | 101 | 0.0 | 0.0 | 0.00 | 0.00 | 0.00 | 67 | 1019.9 |
| 20260507070618 | 51 | 120 | 0.0 | 0.0 | 0.00 | 0.00 | 0.00 | 68 | 1019.8 |
| 20260507070115 | 51 | 110 | 0.0 | 0.0 | 0.00 | 0.00 | 0.00 | 68 | 1019.6 |
| 20260507065611 | 51 | 87 | 0.0 | 0.0 | 0.00 | 0.00 | 0.00 | 68 | 1019.7 |
| 20260507065108 | 51 | 109 | 0.0 | 0.0 | 0.00 | 0.00 | 0.00 | 68 | 1019.9 |
| 20260507064606 | 51 | 104 | 0.0 | 0.0 | 0.00 | 0.00 | 0.00 | 68 | 1019.8 |
| 20260507064104 | 51 | 105 | 0.0 | 0.0 | 0.00 | 0.00 | 0.00 | 68 | 1019.8 |
| 20260507063601 | 51 | 110 | 0.0 | 0.0 | 0.00 | 0.00 | 0.00 | 68 | 1019.9 |
| 20260507063058 | 51 | 113 | 0.0 | 0.0 | 0.00 | 0.00 | 0.00 | 67 | 1019.9 |
| 20260507062555 | 52 | 114 | 0.0 | 0.0 | 0.00 | 0.00 | 0.00 | 67 | 1019.9 |
| 20260507062052 | 52 | 96 | 0.0 | 0.0 | 0.00 | 0.00 | 0.00 | 67 | 1019.7 |
| 20260507061550 | 52 | 87 | 0.0 | 0.0 | 0.00 | 0.00 | 0.00 | 66 | 1019.9 |
| 20260507061048 | 52 | 85 | 0.0 | 0.0 | 0.00 | 0.00 | 0.00 | 66 | 1020.0 |
| 20260507060546 | 52 | 98 | 0.0 | 0.0 | 0.00 | 0.00 | 0.00 | 66 | 1019.8 |
| 20260507060042 | 53 | 110 | 0.0 | 0.0 | 0.00 | 0.00 | 0.00 | 65 | 1019.8 |
| 20260507055537 | 53 | 102 | 0.0 | 0.0 | 0.00 | 0.00 | 0.00 | 65 | 1019.6 |
| 20260507055033 | 53 | 92 | 0.0 | 0.0 | 0.00 | 0.00 | 0.00 | 64 | 1019.9 |
| 20260507054529 | 54 | 85 | 0.0 | 0.0 | 0.00 | 0.00 | 0.00 | 64 | 1019.4 |
| 20260507054026 | 54 | 103 | 0.0 | 0.0 | 0.00 | 0.00 | 0.00 | 63 | 1019.5 |
| 20260507053524 | 54 | 91 | 0.0 | 0.0 | 0.00 | 0.00 | 0.00 | 63 | 1019.5 |
| 20260507053023 | 54 | 83 | 0.0 | 0.0 | 0.00 | 0.00 | 0.00 | 63 | 1019.3 |
| 20260507052520 | 54 | 91 | 0.0 | 0.0 | 0.00 | 0.00 | 0.00 | 63 | 1019.3 |
| 20260507052017 | 55 | 120 | 0.0 | 0.0 | 0.00 | 0.00 | 0.00 | 62 | 1019.3 |
| 20260507051515 | 55 | 118 | 0.0 | 0.0 | 0.00 | 0.00 | 0.00 | 62 | 1019.3 |
| 20260507051011 | 55 | 96 | 0.0 | 0.0 | 0.00 | 0.00 | 0.00 | 61 | 1019.2 |
| 20260507050508 | 55 | 93 | 0.0 | 0.0 | 0.00 | 0.00 | 0.00 | 61 | 1019.1 |
| 20260507050005 | 55 | 84 | 0.0 | 0.0 | 0.00 | 0.00 | 0.00 | 61 | 1019.1 |
| 20260507045501 | 55 | 80 | 0.0 | 0.0 | 0.00 | 0.00 | 0.00 | 61 | 1019.2 |
| 20260507044958 | 55 | 93 | 0.0 | 0.0 | 0.00 | 0.00 | 0.00 | 60 | 1019.1 |
| 20260507044455 | 56 | 96 | 0.0 | 0.0 | 0.00 | 0.00 | 0.00 | 60 | 1019.2 |
| 20260507043951 | 56 | 91 | 0.0 | 0.0 | 0.00 | 0.00 | 0.00 | 60 | 1019.1 |
| 20260507043447 | 56 | 108 | 0.0 | 0.0 | 0.00 | 0.00 | 0.00 | 60 | 1018.9 |
| 20260507042944 | 56 | 96 | 0.0 | 0.0 | 0.00 | 0.00 | 0.00 | 59 | 1018.9 |
| 20260507042441 | 56 | 99 | 0.0 | 0.0 | 0.00 | 0.00 | 0.00 | 59 | 1018.9 |
| 20260507041936 | 57 | 89 | 0.0 | 0.0 | 0.00 | 0.00 | 0.00 | 59 | 1018.8 |
| 20260507041433 | 57 | 96 | 0.0 | 0.0 | 0.00 | 0.00 | 0.00 | 59 | 1018.8 |
| 20260507040931 | 57 | 102 | 0.0 | 0.0 | 0.00 | 0.00 | 0.00 | 58 | 1018.7 |
| 20260507040432 | 57 | 84 | 0.0 | 0.9 | 0.00 | 0.00 | 0.00 | 58 | 1018.8 |
| 20260507035928 | 57 | 106 | 0.0 | 0.0 | 0.00 | 0.00 | 0.00 | 58 | 1018.5 |
| 20260507035424 | 57 | 103 | 0.0 | 0.0 | 0.00 | 0.00 | 0.00 | 58 | 1018.3 |
| 20260507034921 | 57 | 113 | 0.0 | 0.0 | 0.00 | 0.00 | 0.00 | 58 | 1018.3 |
| 20260507034418 | 57 | 79 | 0.0 | 0.0 | 0.00 | 0.00 | 0.00 | 57 | 1018.2 |
| 20260507033916 | 57 | 90 | 0.0 | 0.0 | 0.00 | 0.00 | 0.00 | 57 | 1018.1 |
| 20260507033414 | 58 | 91 | 0.0 | 0.0 | 0.00 | 0.00 | 0.00 | 57 | 1018.1 |
| 20260507032910 | 58 | 92 | 0.0 | 0.0 | 0.00 | 0.00 | 0.00 | 57 | 1017.6 |
| 20260507032407 | 58 | 99 | 0.0 | 0.0 | 0.00 | 0.00 | 0.00 | 56 | 1017.6 |
| 20260507031903 | 58 | 102 | 0.0 | 0.0 | 0.00 | 0.00 | 0.00 | 56 | 1017.5 |
| 20260507031400 | 58 | 95 | 0.0 | 0.0 | 0.00 | 0.00 | 0.00 | 56 | 1017.3 |
| 20260507030857 | 59 | 62 | 0.0 | 0.0 | 0.00 | 0.00 | 0.00 | 55 | 1017.5 |
| 20260507030354 | 59 | 71 | 0.0 | 0.0 | 0.00 | 0.00 | 0.00 | 55 | 1017.1 |
| 20260507025851 | 59 | 83 | 0.0 | 0.0 | 0.00 | 0.00 | 0.00 | 54 | 1017.1 |
| 20260507025349 | 59 | 92 | 0.0 | 0.0 | 0.00 | 0.00 | 0.00 | 54 | 1017.2 |
| 20260507024846 | 60 | 89 | 0.0 | 0.0 | 0.00 | 0.00 | 0.00 | 53 | 1016.9 |
| 20260507024343 | 60 | 109 | 0.0 | 0.0 | 0.00 | 0.00 | 0.00 | 53 | 1016.9 |
| 20260507023839 | 60 | 103 | 0.0 | 0.0 | 0.00 | 0.00 | 0.00 | 53 | 1016.9 |
| 20260507023336 | 60 | 109 | 0.0 | 0.0 | 0.00 | 0.00 | 0.00 | 53 | 1016.6 |
| 20260507022833 | 60 | 73 | 0.0 | 0.9 | 0.00 | 0.00 | 0.00 | 52 | 1016.6 |
| 20260507022330 | 61 | 117 | 0.0 | 0.0 | 0.00 | 0.00 | 0.00 | 52 | 1016.6 |
| 20260507021825 | 61 | 58 | 0.0 | 0.0 | 0.00 | 0.00 | 0.00 | 52 | 1016.6 |
| 20260507021321 | 61 | 79 | 0.0 | 0.0 | 0.00 | 0.00 | 0.00 | 51 | 1016.5 |
| 20260507020819 | 62 | 99 | 0.0 | 0.0 | 0.00 | 0.00 | 0.00 | 51 | 1016.3 |
| 20260507020315 | 62 | 126 | 0.0 | 0.0 | 0.00 | 0.00 | 0.00 | 50 | 1016.3 |
| 20260507015813 | 62 | 87 | 0.0 | 0.0 | 0.00 | 0.00 | 0.00 | 50 | 1016.3 |
| 20260507015311 | 62 | 82 | 0.0 | 0.0 | 0.00 | 0.00 | 0.00 | 50 | 1016.1 |
| 20260507014807 | 62 | 111 | 0.0 | 0.9 | 0.00 | 0.00 | 0.00 | 49 | 1016.1 |
| 20260507014303 | 63 | 71 | 0.0 | 0.0 | 0.00 | 0.00 | 0.00 | 49 | 1016.1 |
| 20260507013800 | 63 | 92 | 0.9 | 0.9 | 0.00 | 0.00 | 0.00 | 49 | 1015.8 |
| 20260507013257 | 63 | 106 | 0.0 | 0.9 | 0.00 | 0.00 | 0.00 | 48 | 1015.8 |
| 20260507012755 | 64 | 85 | 0.0 | 0.0 | 0.00 | 0.00 | 0.00 | 48 | 1015.9 |
| 20260507012250 | 64 | 94 | 0.0 | 0.0 | 0.00 | 0.00 | 0.00 | 48 | 1015.7 |
| 20260507011748 | 64 | 80 | 0.0 | 0.0 | 0.00 | 0.00 | 0.00 | 47 | 1015.8 |
| 20260507011244 | 64 | 70 | 0.0 | 0.9 | 0.00 | 0.00 | 0.00 | 47 | 1015.6 |
| 20260507010744 | 65 | 89 | 0.0 | 0.0 | 0.00 | 0.00 | 0.00 | 46 | 1015.4 |
| 20260507010240 | 65 | 95 | 0.0 | 0.0 | 0.00 | 0.00 | 0.00 | 46 | 1015.3 |
| 20260507005738 | 65 | 106 | 0.0 | 0.0 | 0.00 | 0.00 | 0.00 | 46 | 1015.4 |
| 20260507005234 | 65 | 81 | 0.0 | 0.0 | 0.00 | 0.00 | 0.00 | 45 | 1015.1 |
| 20260507004730 | 66 | 79 | 0.0 | 0.9 | 0.00 | 0.00 | 0.00 | 45 | 1015.3 |
| 20260507004228 | 66 | 84 | 0.0 | 0.0 | 0.00 | 0.00 | 0.00 | 44 | 1015.0 |
| 20260507003724 | 66 | 76 | 0.0 | 0.0 | 0.00 | 0.00 | 0.00 | 44 | 1015.0 |
| 20260507003220 | 66 | 87 | 0.0 | 0.0 | 0.00 | 0.00 | 0.00 | 43 | 1015.0 |
| 20260507002716 | 66 | 60 | 0.0 | 0.0 | 0.00 | 0.00 | 0.00 | 43 | 1014.9 |
| 20260507002212 | 66 | 64 | 1.7 | 2.6 | 0.00 | 0.00 | 0.00 | 43 | 1014.9 |
| 20260507001709 | 67 | 74 | 0.0 | 0.0 | 0.00 | 0.00 | 0.00 | 43 | 1014.9 |
| 20260507001206 | 67 | 63 | 0.0 | 0.0 | 0.00 | 0.00 | 0.00 | 42 | 1014.9 |
| 20260507000702 | 67 | 82 | 0.0 | 0.0 | 0.00 | 0.00 | 0.00 | 42 | 1014.8 |
| 20260507000158 | 67 | 94 | 0.0 | 0.0 | 0.00 | 0.00 | 0.00 | 42 | 1014.8 |
| 20260506235655 | 67 | 73 | 0.0 | 0.0 | 0.00 | 0.00 | 0.00 | 42 | 1014.9 |
| 20260506235150 | 67 | 63 | 0.0 | 0.0 | 0.00 | 0.00 | 0.00 | 43 | 1014.9 |
| 20260506234648 | 67 | 64 | 0.0 | 0.9 | 0.00 | 0.00 | 0.00 | 42 | 1014.7 |
| 20260506234145 | 67 | 89 | 0.0 | 0.0 | 0.00 | 0.00 | 0.00 | 43 | 1014.7 |
| 20260506233642 | 68 | 85 | 0.0 | 0.0 | 0.00 | 0.00 | 0.00 | 42 | 1014.8 |
| 20260506233139 | 68 | 78 | 0.0 | 0.9 | 0.00 | 0.00 | 0.00 | 43 | 1014.8 |
| 20260506232635 | 67 | 70 | 0.0 | 0.0 | 0.00 | 0.00 | 0.00 | 42 | 1014.9 |
| 20260506232131 | 68 | 97 | 0.9 | 0.9 | 0.00 | 0.00 | 0.00 | 42 | 1014.8 |
| 20260506231628 | 68 | 97 | 1.7 | 2.6 | 0.00 | 0.00 | 0.00 | 42 | 1014.8 |
| 20260506231126 | 68 | 85 | 0.9 | 0.9 | 0.00 | 0.00 | 0.00 | 42 | 1014.8 |
| 20260506230623 | 68 | 73 | 0.9 | 0.9 | 0.00 | 0.00 | 0.00 | 42 | 1014.8 |
| 20260506230120 | 68 | 75 | 0.0 | 0.0 | 0.00 | 0.00 | 0.00 | 41 | 1014.7 |
| 20260506225616 | 69 | 66 | 1.7 | 1.7 | 0.00 | 0.00 | 0.00 | 41 | 1014.8 |
| 20260506225113 | 70 | 123 | 0.9 | 1.7 | 0.00 | 0.00 | 0.00 | 41 | 1014.7 |
| 20260506224610 | 70 | 89 | 1.7 | 1.7 | 0.00 | 0.00 | 0.00 | 39 | 1014.6 |
| 20260506224106 | 69 | 60 | 0.0 | 0.9 | 0.00 | 0.00 | 0.00 | 41 | 1014.5 |
| 20260506223602 | 69 | 139 | 0.9 | 0.9 | 0.00 | 0.00 | 0.00 | 41 | 1014.5 |
| 20260506223059 | 69 | 81 | 0.9 | 0.9 | 0.00 | 0.00 | 0.00 | 41 | 1014.3 |
| 20260506222556 | 70 | 68 | 0.0 | 0.9 | 0.00 | 0.00 | 0.00 | 40 | 1014.4 |
| 20260506222052 | 69 | 71 | 0.0 | 0.9 | 0.00 | 0.00 | 0.00 | 41 | 1014.4 |
| 20260506221550 | 69 | 69 | 0.0 | 0.9 | 0.00 | 0.00 | 0.00 | 40 | 1014.5 |
| 20260506221048 | 70 | 55 | 0.0 | 0.0 | 0.00 | 0.00 | 0.00 | 40 | 1014.4 |
| 20260506220543 | 70 | 68 | 0.0 | 0.9 | 0.00 | 0.00 | 0.00 | 40 | 1014.3 |
| 20260506220039 | 69 | 137 | 0.9 | 1.7 | 0.00 | 0.00 | 0.00 | 41 | 1014.5 |
| 20260506215536 | 70 | 67 | 0.0 | 0.0 | 0.00 | 0.00 | 0.00 | 40 | 1014.4 |
| 20260506215031 | 70 | 73 | 0.9 | 0.9 | 0.00 | 0.00 | 0.00 | 41 | 1014.4 |
| 20260506214529 | 69 | 54 | 0.0 | 0.9 | 0.00 | 0.00 | 0.00 | 41 | 1014.6 |
| 20260506214026 | 69 | 69 | 0.0 | 0.9 | 0.00 | 0.00 | 0.00 | 41 | 1014.5 |
| 20260506213524 | 70 | 62 | 0.0 | 0.9 | 0.00 | 0.00 | 0.00 | 40 | 1014.6 |
| 20260506213021 | 70 | 94 | 0.0 | 0.0 | 0.00 | 0.00 | 0.00 | 40 | 1014.4 |
| 20260506212518 | 70 | 61 | 0.0 | 0.9 | 0.00 | 0.00 | 0.00 | 41 | 1014.5 |
| 20260506212013 | 70 | 93 | 2.6 | 2.6 | 0.00 | 0.00 | 0.00 | 40 | 1014.5 |
| 20260506211509 | 70 | 71 | 0.0 | 0.9 | 0.00 | 0.00 | 0.00 | 41 | 1014.7 |
| 20260506211006 | 70 | 69 | 0.0 | 0.9 | 0.00 | 0.00 | 0.00 | 41 | 1014.7 |
| 20260506210502 | 69 | 96 | 0.0 | 0.0 | 0.00 | 0.00 | 0.00 | 41 | 1014.9 |
| 20260506205959 | 69 | 74 | 0.0 | 0.0 | 0.00 | 0.00 | 0.00 | 41 | 1014.8 |
| 20260506205455 | 68 | 123 | 0.0 | 0.0 | 0.00 | 0.00 | 0.00 | 43 | 1015.0 |
| 20260506204951 | 69 | 55 | 0.9 | 1.7 | 0.00 | 0.00 | 0.00 | 42 | 1015.1 |
| 20260506204450 | 70 | 73 | 0.0 | 0.0 | 0.00 | 0.00 | 0.00 | 41 | 1015.0 |
| 20260506203947 | 69 | 43 | 0.9 | 0.9 | 0.00 | 0.00 | 0.00 | 42 | 1015.4 |
| 20260506203444 | 69 | 73 | 0.0 | 0.9 | 0.00 | 0.00 | 0.00 | 41 | 1015.4 |
| 20260506202940 | 69 | 89 | 0.9 | 0.9 | 0.00 | 0.00 | 0.00 | 42 | 1015.4 |
| 20260506202438 | 69 | 55 | 0.9 | 0.9 | 0.00 | 0.00 | 0.00 | 41 | 1015.4 |
| 20260506201934 | 67 | 104 | 0.0 | 0.0 | 0.00 | 0.00 | 0.00 | 43 | 1015.4 |
| 20260506201432 | 68 | 77 | 0.9 | 0.9 | 0.00 | 0.00 | 0.00 | 42 | 1015.6 |
| 20260506200928 | 70 | 68 | 0.0 | 0.9 | 0.00 | 0.00 | 0.00 | 41 | 1015.6 |
| 20260506200425 | 69 | 60 | 0.9 | 1.7 | 0.00 | 0.00 | 0.00 | 41 | 1015.8 |
| 20260506195921 | 67 | 113 | 0.9 | 0.9 | 0.00 | 0.00 | 0.00 | 42 | 1015.7 |
| 20260506195418 | 68 | 100 | 0.9 | 0.9 | 0.00 | 0.00 | 0.00 | 43 | 1015.7 |
| 20260506194915 | 68 | 51 | 0.0 | 0.9 | 0.00 | 0.00 | 0.00 | 43 | 1015.8 |
| 20260506194412 | 68 | 110 | 0.9 | 0.9 | 0.00 | 0.00 | 0.00 | 42 | 1015.8 |
| 20260506193909 | 69 | 76 | 1.7 | 1.7 | 0.00 | 0.00 | 0.00 | 42 | 1015.7 |
| 20260506193406 | 66 | 74 | 0.0 | 0.9 | 0.00 | 0.00 | 0.00 | 44 | 1015.8 |
| 20260506192902 | 66 | 51 | 0.0 | 0.9 | 0.00 | 0.00 | 0.00 | 44 | 1015.9 |
| 20260506192359 | 66 | 60 | 0.0 | 0.9 | 0.00 | 0.00 | 0.00 | 45 | 1015.8 |
| 20260506191856 | 66 | 81 | 0.9 | 0.9 | 0.00 | 0.00 | 0.00 | 45 | 1015.7 |
| 20260506191352 | 66 | 62 | 0.0 | 0.9 | 0.00 | 0.00 | 0.00 | 45 | 1015.7 |
| 20260506190849 | 65 | 74 | 0.9 | 1.7 | 0.00 | 0.00 | 0.00 | 46 | 1015.9 |
| 20260506190345 | 66 | 71 | 0.0 | 0.9 | 0.00 | 0.00 | 0.00 | 45 | 1015.9 |
| 20260506185843 | 65 | 87 | 0.9 | 0.9 | 0.00 | 0.00 | 0.00 | 46 | 1015.9 |
| 20260506185340 | 64 | 105 | 0.9 | 0.9 | 0.00 | 0.00 | 0.00 | 46 | 1016.0 |
| 20260506184836 | 64 | 60 | 0.0 | 0.0 | 0.00 | 0.00 | 0.00 | 47 | 1016.2 |
| 20260506184334 | 65 | 91 | 0.0 | 0.0 | 0.00 | 0.00 | 0.00 | 46 | 1016.3 |
| 20260506183831 | 63 | 57 | 0.9 | 0.9 | 0.00 | 0.00 | 0.00 | 46 | 1016.3 |
| 20260506183326 | 63 | 98 | 0.0 | 0.9 | 0.00 | 0.00 | 0.00 | 48 | 1016.3 |
| 20260506182824 | 63 | 76 | 0.0 | 0.0 | 0.00 | 0.00 | 0.00 | 47 | 1016.4 |
| 20260506182321 | 63 | 75 | 0.0 | 0.9 | 0.00 | 0.00 | 0.00 | 48 | 1016.5 |
| 20260506181819 | 62 | 95 | 0.9 | 0.9 | 0.00 | 0.00 | 0.00 | 49 | 1016.4 |
| 20260506181316 | 62 | 68 | 0.0 | 0.9 | 0.00 | 0.00 | 0.00 | 48 | 1016.5 |
| 20260506180813 | 62 | 66 | 0.0 | 0.9 | 0.00 | 0.00 | 0.00 | 48 | 1016.4 |
| 20260506180309 | 62 | 84 | 0.9 | 0.9 | 0.00 | 0.00 | 0.00 | 48 | 1016.5 |
| 20260506175806 | 61 | 46 | 0.9 | 0.9 | 0.00 | 0.00 | 0.00 | 50 | 1016.5 |
| 20260506175306 | 61 | 67 | 0.0 | 0.0 | 0.00 | 0.00 | 0.00 | 50 | 1016.6 |
| 20260506174800 | 61 | 66 | 0.9 | 1.7 | 0.00 | 0.00 | 0.00 | 51 | 1016.5 |
| 20260506174257 | 61 | 96 | 0.9 | 0.9 | 0.00 | 0.00 | 0.00 | 51 | 1016.7 |
| 20260506173755 | 60 | 71 | 0.0 | 0.0 | 0.00 | 0.00 | 0.00 | 52 | 1016.6 |
| 20260506173251 | 60 | 61 | 0.0 | 0.0 | 0.00 | 0.00 | 0.00 | 53 | 1016.6 |
| 20260506172748 | 59 | 51 | 0.9 | 0.9 | 0.00 | 0.00 | 0.00 | 53 | 1016.8 |
| 20260506172245 | 59 | 73 | 0.9 | 1.7 | 0.00 | 0.00 | 0.00 | 53 | 1016.9 |
| 20260506171742 | 59 | 99 | 0.0 | 0.0 | 0.00 | 0.00 | 0.00 | 54 | 1016.9 |
| 20260506171239 | 58 | 54 | 0.9 | 1.7 | 0.00 | 0.00 | 0.00 | 54 | 1016.9 |
| 20260506170737 | 58 | 67 | 0.0 | 0.0 | 0.00 | 0.00 | 0.00 | 54 | 1016.9 |
| 20260506170233 | 58 | 87 | 0.0 | 0.9 | 0.00 | 0.00 | 0.00 | 53 | 1017.1 |
| 20260506165732 | 57 | 62 | 0.9 | 0.9 | 0.00 | 0.00 | 0.00 | 55 | 1017.0 |
| 20260506165229 | 58 | 65 | 0.0 | 0.9 | 0.00 | 0.00 | 0.00 | 54 | 1017.0 |
| 20260506164726 | 57 | 77 | 0.0 | 0.9 | 0.00 | 0.00 | 0.00 | 55 | 1017.1 |
| 20260506164222 | 57 | 55 | 0.0 | 0.9 | 0.00 | 0.00 | 0.00 | 56 | 1017.3 |
| 20260506163719 | 58 | 91 | 0.0 | 0.0 | 0.00 | 0.00 | 0.00 | 55 | 1017.4 |
| 20260506163214 | 57 | 70 | 0.9 | 1.7 | 0.00 | 0.00 | 0.00 | 56 | 1017.6 |
| 20260506162710 | 56 | 96 | 0.0 | 0.9 | 0.00 | 0.00 | 0.00 | 56 | 1017.5 |
| 20260506162208 | 57 | 78 | 0.0 | 0.0 | 0.00 | 0.00 | 0.00 | 57 | 1017.6 |
| 20260506161705 | 56 | 98 | 0.0 | 0.0 | 0.00 | 0.00 | 0.00 | 58 | 1017.5 |
| 20260506161202 | 55 | 74 | 0.0 | 0.0 | 0.00 | 0.00 | 0.00 | 59 | 1017.6 |
| 20260506160700 | 55 | 110 | 0.9 | 0.9 | 0.00 | 0.00 | 0.00 | 58 | 1017.7 |
| 20260506160156 | 55 | 54 | 0.0 | 0.9 | 0.00 | 0.00 | 0.00 | 58 | 1017.5 |
| 20260506155655 | 54 | 84 | 0.0 | 0.0 | 0.00 | 0.00 | 0.00 | 59 | 1017.7 |
| 20260506155151 | 54 | 67 | 0.0 | 0.9 | 0.00 | 0.00 | 0.00 | 60 | 1017.6 |
| 20260506153253 | 53 | 75 | 0.0 | 0.9 | 0.00 | 0.00 | 0.00 | 61 | 1017.7 |
| 20260506152750 | 53 | 139 | 0.9 | 0.9 | 0.00 | 0.00 | 0.00 | 60 | 1017.9 |
| 20260506152248 | 53 | 98 | 0.0 | 0.9 | 0.00 | 0.00 | 0.00 | 61 | 1017.8 |
| 20260506151747 | 53 | 64 | 0.0 | 0.0 | 0.00 | 0.00 | 0.00 | 60 | 1017.8 |
| 20260506151243 | 54 | 79 | 0.0 | 0.9 | 0.00 | 0.00 | 0.00 | 60 | 1018.1 |
| 20260506150739 | 54 | 68 | 0.0 | 0.9 | 0.00 | 0.00 | 0.00 | 60 | 1017.7 |
| 20260506150237 | 53 | 85 | 0.0 | 0.0 | 0.00 | 0.00 | 0.00 | 60 | 1017.7 |
| 20260506145734 | 53 | 64 | 0.0 | 0.9 | 0.00 | 0.00 | 0.00 | 61 | 1017.5 |
| 20260506145230 | 53 | 82 | 0.0 | 0.9 | 0.00 | 0.00 | 0.00 | 61 | 1017.6 |
| 20260506144727 | 53 | 56 | 0.0 | 0.9 | 0.00 | 0.00 | 0.00 | 61 | 1017.4 |
| 20260506144224 | 53 | 108 | 0.0 | 0.9 | 0.00 | 0.00 | 0.00 | 61 | 1017.2 |
| 20260506143722 | 53 | 61 | 0.0 | 0.0 | 0.00 | 0.00 | 0.00 | 60 | 1017.0 |
| 20260506143219 | 53 | 83 | 0.0 | 0.9 | 0.00 | 0.00 | 0.00 | 60 | 1016.7 |
| 20260506142718 | 54 | 63 | 0.9 | 1.7 | 0.00 | 0.00 | 0.00 | 58 | 1016.8 |
| 20260506142215 | 53 | 72 | 0.0 | 0.0 | 0.00 | 0.00 | 0.00 | 59 | 1016.5 |
| 20260506141713 | 53 | 72 | 0.9 | 0.9 | 0.00 | 0.00 | 0.00 | 60 | 1016.8 |
| 20260506141211 | 52 | 106 | 0.0 | 0.0 | 0.00 | 0.00 | 0.00 | 60 | 1016.6 |
| 20260506140709 | 52 | 79 | 0.0 | 0.0 | 0.00 | 0.00 | 0.00 | 61 | 1016.6 |
| 20260506140205 | 52 | 91 | 0.0 | 0.0 | 0.00 | 0.00 | 0.00 | 61 | 1016.6 |
| 20260506135702 | 52 | 77 | 0.0 | 0.0 | 0.00 | 0.00 | 0.00 | 61 | 1016.8 |
| 20260506135158 | 52 | 60 | 0.0 | 0.9 | 0.00 | 0.00 | 0.00 | 61 | 1016.7 |
| 20260506134655 | 51 | 82 | 0.0 | 0.9 | 0.00 | 0.00 | 0.00 | 61 | 1016.6 |
| 20260506134151 | 51 | 73 | 0.0 | 0.0 | 0.00 | 0.00 | 0.00 | 62 | 1016.7 |
| 20260506133648 | 51 | 80 | 0.0 | 0.9 | 0.00 | 0.00 | 0.00 | 61 | 1016.5 |
| 20260506133145 | 51 | 95 | 0.0 | 0.9 | 0.00 | 0.00 | 0.00 | 62 | 1016.2 |
| 20260506132643 | 51 | 74 | 0.0 | 0.0 | 0.00 | 0.00 | 0.00 | 63 | 1016.2 |
| 20260506132139 | 51 | 76 | 0.0 | 0.9 | 0.00 | 0.00 | 0.00 | 62 | 1016.2 |
| 20260506131637 | 51 | 70 | 0.0 | 0.0 | 0.00 | 0.00 | 0.00 | 62 | 1016.1 |
| 20260506131133 | 51 | 78 | 0.0 | 0.9 | 0.00 | 0.00 | 0.00 | 62 | 1016.0 |
| 20260506130630 | 50 | 70 | 0.9 | 0.9 | 0.00 | 0.00 | 0.00 | 62 | 1016.1 |
| 20260506130127 | 50 | 57 | 0.0 | 0.0 | 0.00 | 0.00 | 0.00 | 62 | 1015.9 |
| 20260506125626 | 50 | 66 | 0.0 | 0.0 | 0.00 | 0.00 | 0.00 | 62 | 1015.9 |
| 20260506125123 | 50 | 80 | 0.0 | 0.9 | 0.00 | 0.00 | 0.00 | 62 | 1015.9 |
| 20260506124621 | 50 | 74 | 0.0 | 0.9 | 0.00 | 0.00 | 0.00 | 61 | 1015.8 |
| 20260506124118 | 50 | 97 | 0.0 | 0.9 | 0.00 | 0.00 | 0.00 | 61 | 1015.6 |
| 20260506123616 | 50 | 69 | 0.0 | 0.0 | 0.00 | 0.00 | 0.00 | 60 | 1015.6 |
| 20260506123114 | 50 | 61 | 0.0 | 0.9 | 0.00 | 0.00 | 0.00 | 60 | 1015.5 |
| 20260506122610 | 50 | 75 | 0.0 | 0.9 | 0.00 | 0.00 | 0.00 | 60 | 1015.4 |
| 20260506122109 | 50 | 80 | 0.0 | 0.0 | 0.00 | 0.00 | 0.00 | 60 | 1015.5 |
| 20260506121606 | 50 | 79 | 0.0 | 0.0 | 0.00 | 0.00 | 0.00 | 60 | 1015.6 |
| 20260506121102 | 50 | 53 | 0.0 | 0.9 | 0.00 | 0.00 | 0.00 | 60 | 1015.5 |
| 20260506120600 | 50 | 66 | 0.0 | 0.0 | 0.00 | 0.00 | 0.00 | 60 | 1015.4 |
| 20260506120057 | 50 | 69 | 0.0 | 0.0 | 0.00 | 0.00 | 0.00 | 61 | 1015.4 |
| 20260506115555 | 50 | 96 | 0.0 | 0.0 | 0.00 | 0.00 | 0.00 | 61 | 1015.3 |
| 20260506115053 | 50 | 122 | 0.0 | 0.0 | 0.00 | 0.00 | 0.00 | 62 | 1015.0 |
| 20260506114550 | 50 | 70 | 0.0 | 0.0 | 0.00 | 0.00 | 0.00 | 61 | 1015.4 |
| 20260506114048 | 50 | 69 | 0.0 | 0.0 | 0.00 | 0.00 | 0.00 | 61 | 1015.3 |
| 20260506113546 | 50 | 94 | 0.0 | 0.9 | 0.00 | 0.00 | 0.00 | 61 | 1015.4 |
| 20260506113043 | 50 | 86 | 0.0 | 0.0 | 0.00 | 0.00 | 0.00 | 62 | 1015.4 |
| 20260506112540 | 50 | 66 | 0.0 | 0.9 | 0.00 | 0.00 | 0.00 | 62 | 1014.8 |
| 20260506112037 | 50 | 78 | 0.0 | 0.0 | 0.00 | 0.00 | 0.00 | 62 | 1015.3 |
| 20260506111535 | 50 | 64 | 0.0 | 0.9 | 0.00 | 0.00 | 0.00 | 62 | 1015.1 |
| 20260506111032 | 50 | 75 | 0.0 | 0.0 | 0.00 | 0.00 | 0.00 | 62 | 1014.7 |
| 20260506110530 | 50 | 69 | 0.0 | 0.0 | 0.00 | 0.00 | 0.00 | 63 | 1015.0 |
| 20260506110027 | 50 | 74 | 0.0 | 0.0 | 0.00 | 0.00 | 0.00 | 64 | 1014.8 |
| 20260506105522 | 50 | 75 | 0.0 | 0.0 | 0.00 | 0.00 | 0.00 | 64 | 1014.8 |
| 20260506105020 | 50 | 97 | 0.0 | 0.0 | 0.00 | 0.00 | 0.00 | 64 | 1014.8 |
| 20260506104518 | 50 | 66 | 0.0 | 0.0 | 0.00 | 0.00 | 0.00 | 65 | 1014.7 |
| 20260506104016 | 50 | 82 | 0.0 | 0.0 | 0.00 | 0.00 | 0.00 | 66 | 1014.7 |
| 20260506103512 | 50 | 75 | 0.0 | 0.0 | 0.00 | 0.00 | 0.00 | 67 | 1014.7 |
| 20260506103009 | 50 | 66 | 0.0 | 0.0 | 0.00 | 0.00 | 0.00 | 67 | 1014.7 |
| 20260506102508 | 49 | 61 | 0.0 | 0.9 | 0.00 | 0.00 | 0.00 | 68 | 1014.6 |
| 20260506102005 | 49 | 61 | 0.0 | 0.0 | 0.00 | 0.00 | 0.00 | 69 | 1014.8 |
| 20260506101501 | 49 | 90 | 0.0 | 0.0 | 0.00 | 0.00 | 0.00 | 70 | 1014.5 |
| 20260506100958 | 49 | 69 | 0.0 | 0.0 | 0.00 | 0.00 | 0.00 | 70 | 1014.8 |
| 20260506100457 | 49 | 70 | 0.9 | 1.7 | 0.00 | 0.00 | 0.00 | 70 | 1014.7 |
| 20260506095954 | 49 | 68 | 0.0 | 0.0 | 0.00 | 0.00 | 0.00 | 71 | 1014.6 |
| 20260506095453 | 49 | 73 | 0.0 | 0.0 | 0.00 | 0.00 | 0.00 | 71 | 1014.5 |
| 20260506094948 | 49 | 70 | 0.0 | 0.0 | 0.00 | 0.00 | 0.00 | 72 | 1014.6 |
| 20260506094447 | 49 | 83 | 0.0 | 0.0 | 0.00 | 0.00 | 0.00 | 73 | 1014.5 |
| 20260506093944 | 49 | 63 | 0.0 | 0.9 | 0.00 | 0.00 | 0.00 | 73 | 1014.6 |
| 20260506093442 | 49 | 63 | 0.0 | 0.9 | 0.00 | 0.00 | 0.00 | 74 | 1014.3 |
| 20260506092940 | 49 | 56 | 0.0 | 0.0 | 0.00 | 0.00 | 0.00 | 74 | 1014.0 |
| 20260506092438 | 49 | 85 | 0.0 | 0.9 | 0.00 | 0.00 | 0.00 | 75 | 1014.2 |
| 20260506091934 | 49 | 64 | 0.0 | 0.9 | 0.00 | 0.00 | 0.00 | 75 | 1014.3 |
| 20260506091432 | 49 | 88 | 0.0 | 0.0 | 0.00 | 0.00 | 0.00 | 75 | 1014.3 |
| 20260506090929 | 49 | 89 | 0.0 | 0.0 | 0.00 | 0.00 | 0.00 | 75 | 1014.1 |
| 20260506090427 | 49 | 77 | 0.0 | 0.0 | 0.00 | 0.00 | 0.00 | 76 | 1013.9 |
| 20260506085923 | 49 | 78 | 0.0 | 0.0 | 0.00 | 0.00 | 0.00 | 76 | 1014.0 |
| 20260506085420 | 49 | 48 | 0.0 | 0.0 | 0.00 | 0.00 | 0.00 | 75 | 1014.0 |
| 20260506084916 | 50 | 70 | 0.0 | 0.9 | 0.00 | 0.00 | 0.00 | 75 | 1014.2 |
| 20260506084413 | 50 | 134 | 0.0 | 0.9 | 0.00 | 0.00 | 0.00 | 74 | 1014.0 |